Location: Cahas Mountain Overlook
(37.0833°N, 80.1000°W)
Time: 20:04:27
(UTC-04:00)

Tiros 1 - Pass Details

Date: 16 February 2026
Orbit: 618 x 649 km, 48.4° (Epoch: 13 March)

Event Time Altitude Azimuth Distance (km) Brightness Sun altitude
Rises 09:07:49 0° 234° (SW) 2,904 10.3 20.9°
Reaches altitude 10° 09:10:08 10° 235° (SW) 1,994 9.5 21.3°
Maximum altitude 09:14:44 87° 319° (NW) 627 7.5 22.0°
Drops below altitude 10° 09:19:19 10° 55° (NE) 1,985 10.0 22.7°
Sets 09:21:37 0° 55° (NE) 2,890 10.7 23.1°
